{"data":{"norad_id":53686,"intl_designator":"2022-105AQ","name":"STARLINK-4467","alt_names":[],"object_type":"PAYLOAD","status":"ACTIVE","operator":null,"country":"US","launch_date":"2022-08-31","launch_site_code":"AFWTR","launch_vehicle":null,"mission":null,"orbit_class":"UNKNOWN","rcs_meters":null,"size_class":null,"mass_kg":null,"dimensions":null,"purposes":["comms"],"wikipedia_slug":null,"has_3d_model":false,"image_url":null,"decayed_at":null,"tle_current":{"epoch":"2026-05-25T03:28:51.214944Z","epoch_age_seconds":58511,"freshness":"FRESH","line1":"1 53686U 22105AQ  26145.14503721  .00014130  00000+0  98067-3 0  9990","line2":"2 53686  97.4562  25.0492 0001271  66.0839 294.0521 15.05678300204732","mean_motion":15.056783,"eccentricity":0.0001271,"inclination_deg":97.4562,"raan_deg":25.0492,"arg_perigee_deg":66.0839,"mean_anomaly_deg":294.0521,"bstar":0.00098067,"rev_number":20473,"period_min":95.637959317073,"perigee_km":548.54385490715,"apogee_km":550.3048410018,"semimajor_km":6927.5613479545,"source":"CELESTRAK","updated_at":"2026-05-25T13:38:17.529389Z"}}}